030106 474  1.2+  0.7-    030117 360 (2.8+  4.4-)   030221 246  0.0   0.0   

030106 474 (2.4-  4.2-)   030117 360 (3.0+  4.2-)   030221 246  0.0   0.0   

030106 474  1.7+  2.1+    030117 360 (3.4+  4.1-)   030221 246  0.4-  0.1+  

030107 704  1.2+  1.6+    030117 246 (3.1+  4.8-)   030221 246  0.2-  0.0   

030107 704  0.5-  0.2-    030117 246 (2.8+  4.7-)   030221 246  0.2-  0.0   

030107 858  0.1+  0.3-    030117 246 (3.9+  4.0-)   030221 246  0.5+  0.1-  

030107 858  0.0   0.2+    030117 246 (3.9+  4.5-)   030222 699  0.2+  0.6-  

030107 704 (3.1+  1.0+)   030117 246 (3.8+  4.2-)   030222 699  0.2+  0.0   

030107 704  1.0-  0.5+    030117 246 (4.0+  4.1-)   030222 699  2.1+  0.4+  

030107 858  0.4+  0.2+    030124 372 (6.0+  2.8-)   030222 699  1.1+  0.4-  

030107 608  0.2-  0.6-    030125 130 (3.6+  5.1-)   030222 J95  0.8+  0.3+  

030107 608  0.2-  0.1+    030125 130 (3.2+  5.0-)   030222 J95  0.1+  0.4+  

030107 608  0.1-  0.3-    030125 130 (3.0+  4.9-)   030224 204  1.6-  0.0   

030108 704  1.1+  0.4-    030125 J95 (3.4+  4.1-)   030224 204  0.9-  0.4+  

030108 704  0.3+  0.5-    030125 J95 (3.8+  4.1-)   030224 204  0.6-  0.4+  

030108 704  0.0   0.8-    030126 J95 (3.4+  4.4-)   030224 204  1.0-  0.2+  

030108 858  1.2+  0.9-    030126 J95 (3.4+  4.9-)   030305 213  1.6-  2.2-  

030108 704 (2.9-  1.3-)   030128 608 (4.4+  3.4-)   030305 213  2.0-  0.4-  

030108 858  1.8+  0.5-    030128 608 (4.9+  4.2-)   030305 213  1.3-  1.8+  

030108 704  0.1+  0.5-    030128 608 (4.3+  4.1-)   030313 J95(10.4-  1.0+) 

030108 608  0.1-  1.5-    030128 372 (4.7+  2.3-)   030313 J95 (9.4-  1.5+) 

Note I can't judge yet whether the last observations are good or bad.

Last observations (Mar. 13 and 14) show small residuals from an orbit

using 2003 observations only.  See below section of P/2003 A1.



NAKANO

         **** Don't distribute anyone except personal use only ****

                (C) Copyright 2003 OAA/ComputingSection

write mail from CFAD0::NAKANO on 2003-03-20 00:36:21(JST).

 

◎D/1783 W1 = P/2003 A1の軌道と予報位置です



 2003年の観測が延びるにつれて,1783年と2003年の観測の連結が次第に

難しくなってきました. 220年も離れて,33公転した彗星を結ぶこと自体,

どだい無理があります.そうなることが分っていて,何もしないで,放っ

ておくセンタ−の気持ちが理解できません.そういう意味では,最初の連

結軌道と2番目の連結軌道が,彗星の同定を確立するベストの軌道です.

 次の軌道は,2003年の近日点通過前後,1月15日から2月10日の55個の

観測を省いて,連結したものです.最後の観測(3月13日)の良し悪しが

分りませんが,2003年のみの改良では,精度の良い観測です.なお,彗星

は,あと,少しの期間,観測が可能です.



    P/1783 W1 (Pigott) = P/2003 A1 

Epoch 1783 Nov. 10.0 TT = JDT 2372600.5  

T 1783 Nov. 15.62169 TT                                 Nakano

q   1.4753635            (2000.0)            P               Q

n   0.15836160     Peri.  351.66631     +0.60722716     -0.50475951

a   3.3835256      Node    58.15276     +0.76425392     +0.15991956

e   0.5639567      Incl.   46.24732     +0.21723519     +0.84831808

P   6.22 (+/- 0.10 day)



Epoch 2003 Feb. 10.0 TT = JDT 2452680.5  

T 2003 Feb. 1.51752 TT                                  Nakano

q   1.9124233            (2000.0)            P               Q

n   0.14288622     Peri.  357.20541     +0.59705587     -0.53961387

a   3.6236187      Node    55.24721     +0.74930510     +0.11089851

e   0.4722338      Incl.   46.25759     +0.28647191     +0.83457678

P   6.90 (+/- 0.10 day)

From 89 observations 1783-2003, weighting mean residual 2".21.

   Nongravitational parameters A1 = -4.18 +/- 0.29, A2 = +1.3086 +/- 0.0788.



 

Date/        TT  R.A.(2000) Decl.     Delta   r     Daily motion  Mag.  Moon Age

              h    h  m       。  ,                      ,  / PA 。  m1      。

2003 Mar. 15 11  02 31.34  +24 29.8   2.438  1.946    31.7 /  48  18.3   90  .88

          16 11  02 33.06  +24 51.1   2.448  1.947    31.7 /  48  18.3  103  .94

          17 11  02 34.79  +25 12.4   2.458  1.949    31.7 /  48  18.4  117  .98

          18 11  02 36.54  +25 33.5   2.468  1.950    31.7 /  49  18.4  131 1.00

          19 11  02 38.31  +25 54.4   2.478  1.952    31.7 /  49  18.4  145  .98

          20 11  02 40.08  +26 15.3   2.488  1.954    31.7 /  49  18.4  158  .94

          21 11  02 41.87  +26 36.0   2.498  1.955    31.7 /  49  18.4  167  .87

          22 11  02 43.67  +26 56.6   2.508  1.957    31.7 /  50  18.4  165  .78

          23 11  02 45.49  +27 17.1   2.517  1.959    31.8 /  50  18.4  154  .68

          24 11  02 47.32  +27 37.4   2.527  1.961    31.8 /  50  18.4  142  .57

          25 11  02 49.17  +27 57.6   2.537  1.963    31.8 /  51  18.5  129  .46

          26 11  02 51.03  +28 17.7   2.546  1.965    31.8 /  51  18.5  117  .35

          27 11  02 52.90  +28 37.7   2.556  1.967    31.8 /  51  18.5  104  .26

          28 11  02 54.79  +28 57.6   2.565  1.969    31.8 /  52  18.5   93  .17

          29 11  02 56.69  +29 17.3   2.574  1.971    31.8 /  52  18.5   81  .11

          30 11  02 58.61  +29 36.9   2.584  1.973    31.8 /  52  18.5   69  .05

          31 11  03 00.54  +29 56.4   2.593  1.975    31.8 /  52  18.5   58  .02

     Apr.  1 11  03 02.49  +30 15.7   2.602  1.977    31.8 /  53  18.5   47  .00

           2 11  03 04.45  +30 34.9   2.611  1.979    31.8 /  53  18.5   36  .00

           3 11  03 06.42  +30 54.0   2.620  1.981    31.8 /  53  18.6   26  .02

           4 11  03 08.41  +31 13.0   2.629  1.983    31.8 /  54  18.6   18  .06

           5 11  03 10.41  +31 31.8   2.637  1.986    31.8 /  54  18.6   14  .11

           6 11  03 12.43  +31 50.6   2.646  1.988    31.8 /  54  18.6   18  .18

           7 11  03 14.46  +32 09.2   2.655  1.990    31.8 /  54  18.6   26  .26

           8 11  03 16.51  +32 27.6   2.664  1.993    31.9 /  55  18.6   37  .35

           9 11  03 18.57  +32 46.0   2.672  1.995    31.9 /  55  18.6   48  .45

          10 11  03 20.65  +33 04.2   2.681  1.997    31.9 /  55  18.6   59  .55

          11 11  03 22.74  +33 22.2   2.689  2.000    31.9 /  56  18.7   71  .65

          12 11  03 24.84  +33 40.2   2.697  2.002    31.9 /  56  18.7   84  .75

          13 11  03 26.97  +33 58.0   2.705  2.005    31.9 /  56  18.7   97  .84

          14 11  03 29.10  +34 15.7   2.714  2.007    31.9 /  56  18.7  110  .92

          15 11  03 31.25  +34 33.2   2.722  2.010    31.9 /  57  18.7  124  .97

NAKANO

         **** Don't distribute anyone except personal use only ****

                (C) Copyright 2003 OAA/ComputingSection

write mail from CFAD0::NAKANO on 2003-03-15 05:47:06(JST).

 





    P/2003 A1                                                             

T 2003 Feb. 1.17714 TT                                  Nakano

q   1.9159761            (2000.0)            P               Q

n   0.13886430     Peri.  357.04925     +0.59932588     -0.53746636

a   3.6932522      Node    55.18952     +0.74845120     +0.11335032

e   0.4812225      Incl.   46.26522     +0.28395297     +0.83563247

P   7.10 (+/- 1.41 day)

From 105 observations 2003 Jan. 5-Feb. 11.



NAKANO

         **** Don't distribute anyone except personal use only ****

                (C) Copyright 2003 OAA/ComputingSection

write mail from CFAD0::NAKANO on 2003-02-19 01:17:07(JST).

 

    P/2003 A1                                                             

T 2003 Feb. 1.26347 TT                                  Nakano

q   1.9156958            (2000.0)            P               Q

n   0.13901335     Peri.  357.08825     +0.59888942     -0.53797391

a   3.6906119      Node    55.19478     +0.74857530     +0.11286112

e   0.4809273      Incl.   46.25945     +0.28454608     +0.83537203

P   7.09 (+/- 3.23 day)

From 79 observations 2003 Jan. 5-28.



NAKANO

         **** Don't distribute anyone except personal use only ****

                (C) Copyright 2003 OAA/ComputingSection

write mail from CFAD0::NAKANO on 2003-01-30 23:15:24(JST).

◎D/1783 W1=P/2003 A1の連結軌道です



 次の軌道は,彗星が1783年から2003年の 220年間に33回公転したものとして

計算したものです.非重力効果の数値が大きいですが,過去の経験から2003年

側の観測期間が伸びれば,小さな値(多分,A1=-1.5,A2=+0.3くらい)を示す

ようになるでしょう.



    D/1783 W1 = P/2003 A1 (Pigott) 

Epoch 1783 Nov. 10.0 TT = JDT 2372600.5  

T 1783 Nov. 15.62599 TT                                 Nakano

q   1.4754926            (2000.0)            P               Q

n   0.15834044     Peri.  351.64995     +0.60720572     -0.50500398

a   3.3838269      Node    58.16789     +0.76431212     +0.16031053

e   0.5639574      Incl.   46.21996     +0.21709031     +0.84809877

P   6.22 (+/- 0.10 day)



Epoch 2003 Feb. 10.0 TT = JDT 2452680.5  

T 2003 Feb. 1.82630 TT                                  Nakano

q   1.9119265            (2000.0)            P               Q

n   0.14287774     Peri.  357.34144     +0.59559655     -0.54143995

a   3.6237621      Node    55.26083     +0.74968051     +0.10933935

e   0.4723918      Incl.   46.22787     +0.28852017     +0.83359923

P   6.90 (+/- 0.10 day)

From 103 observations 1783-2003, mean residual 1".39.

   Nongravitational parameters A1 = -5.27 +/- 0.14, A2 = +1.3047 +/- 0.0784.

 

Date/        TT  R.A.(2000) Decl.     Delta   r     Daily motion  Mag.  Moon Age

              h    h  m       。  ,                      ,  / PA 。  m1      。

2003 Jan. 26 12  01 25.39  +04 39.7   1.906  1.913    32.3 /  28  17.7  150  .37

          27 12  01 26.40  +05 08.3   1.917  1.912    32.3 /  28  17.7  137  .27

          28 12  01 27.43  +05 36.7   1.929  1.912    32.3 /  29  17.7  123  .17

          29 12  01 28.48  +06 04.9   1.940  1.912    32.2 /  29  17.8  110  .10

          30 12  01 29.54  +06 33.0   1.952  1.912    32.2 /  30  17.8   97  .04

          31 12  01 30.62  +07 00.8   1.963  1.912    32.2 /  31  17.8   84  .01

     Feb.  1 12  01 31.72  +07 28.5   1.974  1.912    32.1 /  31  17.8   71  .00

           2 12  01 32.83  +07 56.0   1.986  1.912    32.1 /  32  17.8   59  .01

           3 12  01 33.97  +08 23.4   1.997  1.912    32.1 /  32  17.8   46  .05

           4 12  01 35.12  +08 50.6   2.009  1.912    32.0 /  33  17.8   35  .10

           5 12  01 36.28  +09 17.6   2.020  1.912    32.0 /  33  17.8   23  .16

